Regional Weather Roundup
Issued by NWS Charleston, SC

Current Version | Previous Version | Graphics & Text | Print | Product List | Glossary On
Versions: 1 2 3 4 5 6 7 8 9 10 11 12 13 14 15 16 17 18 19 20 21 22 23 24 25 26 27 28 29 30 31 32 33 34 35 36 37 38 39 40 41 42 43 44 45 46 47 48 49 50
332 ASUS42 KCHS 251113 RWRCHS REGIONAL WEATHER ROUNDUP NATIONAL WEATHER SERVICE CHARLESTON SC 700 AM EDT MON JUL 25 2016 NOTE: "FAIR" INDICATES FEW OR NO CLOUDS BELOW 12,000 FEET WITH NO SIGNIFICANT WEATHER AND/OR OBSTRUCTIONS TO VISIBILITY. NOT ALL STATIONS ARE QUALITY CONTROLLED. USE DATA WITH CAUTION... ESPECIALLY DEWPOINT OBSERVATIONS. SCZ027-030-031-034>040-042>050-251200- ...SOUTHEAST SOUTH CAROLINA... CITY SKY/WX TMP DP RH WIND PRES REMARKS N CHARLESTON PTCLDY 79 75 87 SW3 30.08R WATERFRONT PRK N/A 82 77 84 CALM 30.05R HX 90 MOUNT PLEASANT FAIR 75 75 100 CALM 30.08R FOG JOHNS ISLAND FAIR 79 75 89 CALM 30.08R PINOPOLIS N/A 79 75 89 CALM 30.00R MONCKS CORNER FAIR 72 70 94 CALM 30.08R SUMMERVILLE FAIR 73 73 100 CALM 30.09 BEAUFORT MCAS PTCLDY 78 74 87 CALM 30.07R BEAUFORT ARPT FAIR 79 75 89 CALM 30.07R HILTON HEAD IS CLEAR 77 73 88 CALM 30.07R WALTERBORO SUNNY 77 77 100 CALM 30.09R ALLENDALE FAIR 75 73 94 CALM 30.07R ...SOUTHERN MIDLANDS AND PEE DEE... CITY SKY/WX TMP DP RH WIND PRES REMARKS GEORGETOWN FAIR 73 72 94 CALM 30.08S KINGSTREE FAIR 73 72 94 CALM 30.08R FOG ORANGEBURG PTCLDY 76 73 91 CALM 30.08R BARNWELL NOT AVBL AIKEN FAIR 73 70 88 S3 30.11R MANNING FAIR 77 72 83 CALM 30.08R COLUMBIA PTCLDY 78 72 81 S3 30.06R SUMTER CLEAR 78 73 85 S5 30.05S HAZE FLORENCE MOCLDY 78 75 90 S5 30.08R MYRTLE BEACH PTCLDY 81 70 69 SW6 30.09R N MYRTLE BEACH CLEAR 80 77 90 SW3 30.08R $$ GAZ063-065-086>088-099>101-113>116-118-119-134>141-150-251200- ...SOUTHEAST GEORGIA... CITY SKY/WX TMP DP RH WIND PRES REMARKS SAVANNAH ARPT PTCLDY 75 72 90 CALM 30.07R HUNTER AAF CLEAR 74 74 100 CALM 30.05R FORT STEWART CLEAR 72 71 94 CALM 30.05R STATESBORO CLEAR 74 73 97 CALM 30.07R SYLVANIA NOT AVBL CLAXTON FAIR 71 71 100 CALM 30.07R ...CSRA...CENTRAL AND FAR SOUTHEAST GEORGIA... CITY SKY/WX TMP DP RH WIND PRES REMARKS THOMSON NOT AVBL AUGUSTA-BUSH PTCLDY 75 72 90 CALM 30.06R AUGUSTA-DANIEL PTCLDY 79 70 74 S3 30.08R SWAINSBORO FAIR 73 72 94 CALM 30.08R VIDALIA CLEAR 73 72 94 CALM 30.08R EASTMAN FAIR 73 73 100 CALM 30.10R HAZLEHURST FAIR 75 75 99 CALM 30.07R ALMA PTCLDY 72 70 93 CALM 30.07R WAYCROSS CLEAR 74 74 99 CALM 30.07R JESUP FAIR 72 72 100 CALM 30.08R BAXLEY FAIR 73 73 100 CALM 30.07R BRUNSWICK PTCLDY 73 73 100 CALM 30.08R SAINT SIMONS CLEAR 79 73 82 CALM 30.06R $$ SCZ027-028-034-036>038-045-046-048>050-GAZ119-141-251200- ...LAKE AND SUPPLEMENTAL COASTAL OBSERVATIONS... STATION/POSITION TIME TEMP WIND PRES WAVE SWELL AIR SEA DIR/SP/G HT/PER HT/PER/DIR (UTC) (F) (DEG/KT/KT) (MB) (FT/S) (FT/S/D) WINYAH BAY NOT AVBL LAKE MURRAY 1000 82 230/ 6/ 9 1016.9R ACE BASIN NERRS NOT AVBL FORT PULASKI 1000 81 88 260/ 2/ 3 1018.0R SAPELO ISLAND 1000 80 200/ 6 1017.0S $$ ANZ835-935-AMZ111-154-330-350-352-354-370-450-454-472-251200- ...C-MAN AND BUOY OBSERVATIONS... STATION/POSITION TIME TEMP WIND PRES WAVE SWELL AIR SEA DIR/SP/G HT/PER HT/PER/DIR (UTC) (F) (DEG/KT/KT) (MB) (FT/S) (FT/S/D) BUOY 41004 1050 85 86 230/ 8/ 10 1017.9R 2/ 4 2/220/ 4 BUOY 41008 1050 84 86 200/ 10/ 14 1017.9R 3/ 5 2/100/ 9 FOLLY BEACH CMAN 1100 83 230/ 5/ 8 1018.6R CAPERS NEARSHORE 1008 83 83 230/ 10/ 14 1017.8R FRIPP NEARSHORE 1008 85 86 220/ 12/ 16 1017.1R STATION/POSITION TIME TEMP WIND PRES WAVE SWELL AIR SEA DIR/SP/G HT/PER HT/PER/DIR (UTC) (F) (DEG/KT/KT) (MB) (FT/S) (FT/S/D) 5E ST. MARYS GA 1101 86 N/A 2/ 9 FRYING PAN BUOY 1000 84 85 200/ 10/ 14 1018.0R BUOY 41025 1050 84 85 240/ 16/ 17 1017.8R 3/ 5 2/130/ 8 CAPE LOOKOUT NC 1000 82 250/ 8/ 10 1017.8R BUOY 41002 1050 83 84 200/ 10/ 12 1019.4R 2/ 8 2/100/ 8 BUOY 41010 1020 83 86 180/ 4/ 6 1018.1R ST AUGUSTINE FL 1100 77 85 190/ 5/ 6 1018.9R $$

USA.gov is the U.S. government's official web portal to all federal, state and local government web resources and services.